Weather History for Melbourne, FL

Change the Weather History Date:

Saturday, July 13, 2013

  Actual Average Record
Temperature  
Mean Temperature 80 °F 82 °F  
Max Temperature 85 °F 91 °F 100 °F (1980)
Min Temperature 74 °F 73 °F 66 °F (1938)
Degree Days  
Heating Degree Days 0 0  
Month to date heating degree days 0 0  
Since 1 June heating degree days 0 0  
Since 1 July heating degree days 0 0  
Cooling Degree Days 15 17  
Month to date cooling degree days 228 210  
Year to date cooling degree days 1587 1398  
Since 1 June cooling degree days 726 672  
Growing Degree Days 30 (Base 50)    
Moisture  
Dew Point 73 °F    
Average Humidity 81    
Maximum Humidity 88    
Minimum Humidity 74    
Precipitation  
Precipitation 0.08 in 0.18 in 1.42 in (1991)
Month to date precipitation 1.03 2.48  
Year to date precipitation 23.10 22.69  
Sea Level Pressure  
Sea Level Pressure 29.97 in    
Wind  
Wind Speed 5 mph (SE)    
Max Wind Speed 18 mph    
Max Gust Speed 23 mph    
Visibility 10 miles    
Events Rain , Thunderstorm    
T = Trace of Precipitation, MM = Missing Value Source: NWS Daily Summary

Daily Weather History Graph

Daily Weather History Graph

Search for Another Location

Airport:

Trip Planner

Search our weather history database for the weather conditions in past years. The results will help you decide how hot, cold, wet, or windy it might be!

Date:

Astronomy

Jul. 13, 2013 Rise Set
Actual Time 6:34 AM EDT 8:21 PM EDT
Civil Twilight 6:08 AM EDT 8:47 PM EDT
Nautical Twilight 5:36 AM EDT 9:19 PM EDT
Astronomical Twilight 5:03 AM EDT 9:52 PM EDT
Moon 11:19 AM EDT (7/13) 11:34 PM EDT (7/13)
Length of Visible Light 14h 39m
Length of Day
13h 46m
Waxing Crescent, 25% of the Moon is Illuminated
Jul 13
Waxing Crescent
Jul 15
First Quarter
Jul 22
Full
Jul 29
Last Quarter
Aug 6
New

Hourly Weather History & Observations

Time (EDT) Temp. Heat Index Dew Point Humidity Pressure Visibility Wind Dir Wind Speed Gust Speed Precip Events Conditions
12:53 AM 77.0 °F - 73.0 °F 88% 29.96 in 10.0 mi Calm Calm - N/A   Clear
1:53 AM 75.9 °F - 72.0 °F 87% 29.94 in 10.0 mi Calm Calm - N/A   Clear
2:53 AM 75.0 °F - 72.0 °F 90% 29.93 in 10.0 mi Calm Calm - N/A   Clear
3:53 AM 75.9 °F - 72.0 °F 87% 29.94 in 10.0 mi SSE 4.6 mph - N/A   Clear
4:53 AM 75.0 °F - 71.1 °F 87% 29.94 in 10.0 mi Calm Calm - N/A   Clear
5:53 AM 75.0 °F - 71.1 °F 87% 29.94 in 10.0 mi Calm Calm - N/A   Clear
6:53 AM 75.0 °F - 71.1 °F 87% 29.94 in 10.0 mi Calm Calm - N/A   Clear
7:53 AM 77.0 °F - 71.1 °F 82% 29.95 in 10.0 mi Calm Calm - N/A   Clear
8:53 AM 81.0 °F 85.2 °F 72.0 °F 74% 29.97 in 10.0 mi SSE 5.8 mph - N/A   Clear
9:53 AM 82.0 °F 87.4 °F 73.0 °F 74% 29.99 in 10.0 mi ESE 5.8 mph - N/A   Clear
10:53 AM 82.9 °F 89.4 °F 73.9 °F 74% 29.99 in 10.0 mi Calm Calm - N/A   Clear
11:53 AM 84.9 °F 93.3 °F 75.0 °F 72% 29.99 in 10.0 mi ENE 9.2 mph - N/A   Scattered Clouds
12:53 PM 82.4 °F 88.2 °F 73.4 °F 74% 30.00 in 10.0 mi ESE 12.7 mph - N/A Thunderstorm Scattered Clouds
1:53 PM 81.0 °F 86.7 °F 75.0 °F 82% 29.97 in 10.0 mi SE 10.4 mph - 0.00 in Rain , Thunderstorm Light Rain
2:53 PM 80.1 °F 85.1 °F 75.0 °F 85% 29.99 in 10.0 mi SE 8.1 mph - 0.02 in Rain , Thunderstorm Light Rain
3:53 PM 80.1 °F 85.4 °F 75.9 °F 87% 29.99 in 10.0 mi SSE 13.8 mph - 0.04 in Rain Light Rain
4:53 PM 77.0 °F - 73.0 °F 88% 29.99 in 10.0 mi SW 9.2 mph - 0.01 in Rain Light Rain
5:53 PM 75.9 °F - 73.0 °F 91% 29.97 in 10.0 mi SSW 3.5 mph - 0.01 in   Partly Cloudy
6:53 PM 77.0 °F - 71.1 °F 82% 29.98 in 10.0 mi Calm Calm - N/A   Scattered Clouds
7:53 PM 77.0 °F - 71.1 °F 82% 29.98 in 10.0 mi Calm Calm - N/A   Clear
8:53 PM 75.9 °F - 71.1 °F 85% 30.00 in 10.0 mi SE 4.6 mph - N/A   Clear
9:53 PM 75.9 °F - 72.0 °F 87% 30.01 in 10.0 mi SSE 4.6 mph - N/A   Clear
10:53 PM 75.9 °F - 72.0 °F 87% 30.01 in 10.0 mi South 3.5 mph - N/A   Clear
11:53 PM 75.9 °F - 72.0 °F 87% 30.02 in 10.0 mi SSE 6.9 mph - N/A   Clear